Wink, TX

8:07 PM CST on November 17, 2017 (GMT -0600)
Winkler County

Weather History for KINK - April, 2013

Change the Weather History Date:

Sunday, April 7, 2013

  Actual Average Record
Temperature  
Mean Temperature 68 °F -  
Max Temperature 90 °F 81 °F 95 °F (1999)
Min Temperature 46 °F 47 °F 20 °F (1939)
Cooling Degree Days 3    
Growing Degree Days 18 (Base 50)    
Moisture  
Dew Point 26 °F    
Average Humidity 29    
Maximum Humidity 75    
Minimum Humidity 7    
Precipitation  
Precipitation 0.00 in - - ()
Sea Level Pressure  
Sea Level Pressure 29.67 in    
Wind  
Wind Speed 10 mph (SW)    
Max Wind Speed 25 mph    
Max Gust Speed 33 mph    
Visibility 10 miles    
Events      
Averages and records for this station are not official NWS values.
T = Trace of Precipitation, MM = Missing Value Source: NWS Daily Summary

Daily Weather History Graph

Daily Weather History Graph

Search for Another Location

Airport or City:

Trip Planner

Search our weather history database for the weather conditions in past years. The results will help you decide how hot, cold, wet, or windy it might be!

Date:

Astronomy

Apr. 07, 2013 Rise Set
Actual Time 7:33 AM CDT 8:16 PM CDT
Civil Twilight 7:08 AM CDT 8:41 PM CDT
Nautical Twilight 6:39 AM CDT 9:10 PM CDT
Astronomical Twilight 6:09 AM CDT 9:40 PM CDT
Moon 5:43 AM CDT (4/7) 5:58 PM CDT (4/7)
Length of Visible Light 13h 32m
Length of Day
12h 43m
Waning Crescent, 8% of the Moon is Illuminated
Apr 7
Waning Crescent
Apr 10
New
Apr 18
First Quarter
Apr 25
Full
May 2
Last Quarter

Hourly Weather History & Observations

Time (CDT) Temp. Dew Point Humidity Pressure Visibility Wind Dir Wind Speed Gust Speed Precip Events Conditions
12:53 AM 59.0 °F 16.0 °F 19% 29.72 in 10.0 mi SSE 10.4 mph - N/A   Clear
1:53 AM 57.9 °F 28.9 °F 33% 29.72 in 10.0 mi SSE 8.1 mph - N/A   Clear
2:53 AM 53.1 °F 36.0 °F 52% 29.71 in 10.0 mi SE 8.1 mph - N/A   Clear
3:53 AM 52.0 °F 37.0 °F 57% 29.70 in 10.0 mi Calm Calm - N/A   Clear
4:53 AM 50.0 °F 36.0 °F 59% 29.70 in 10.0 mi Calm Calm - N/A   Clear
5:53 AM 48.0 °F 37.9 °F 68% 29.70 in 10.0 mi Calm Calm - N/A   Clear
6:53 AM 46.9 °F 35.1 °F 63% 29.72 in 10.0 mi ESE 3.5 mph - N/A   Clear
7:53 AM 48.0 °F 39.9 °F 74% 29.74 in 10.0 mi ESE 4.6 mph - N/A   Clear
8:53 AM 55.9 °F 48.0 °F 75% 29.75 in 9.0 mi SSE 4.6 mph - N/A   Clear
9:53 AM 64.0 °F 42.1 °F 45% 29.75 in 10.0 mi SW 5.8 mph - N/A   Clear
10:53 AM 77.0 °F 27.0 °F 16% 29.74 in 10.0 mi WSW 11.5 mph 18.4 mph N/A   Clear
11:53 AM 84.9 °F 24.1 °F 11% 29.72 in 10.0 mi West 20.7 mph 33.4 mph N/A   Clear
12:53 PM 86.0 °F 21.0 °F 9% 29.70 in 10.0 mi WSW 25.3 mph 33.4 mph N/A   Clear
1:53 PM 88.0 °F 21.0 °F 9% 29.67 in 10.0 mi WSW 17.3 mph 25.3 mph N/A   Clear
2:53 PM 89.1 °F 19.9 °F 8% 29.64 in 10.0 mi WSW 19.6 mph 29.9 mph N/A   Clear
3:53 PM 88.0 °F 19.0 °F 8% 29.62 in 10.0 mi WSW 19.6 mph 33.4 mph N/A   Clear
4:53 PM 90.0 °F 18.0 °F 7% 29.59 in 10.0 mi WSW 21.9 mph 32.2 mph N/A   Clear
5:53 PM 89.1 °F 18.0 °F 7% 29.58 in 10.0 mi West 19.6 mph 25.3 mph N/A   Clear
6:53 PM 88.0 °F 16.0 °F 7% 29.58 in 10.0 mi WSW 16.1 mph 24.2 mph N/A   Clear
7:53 PM 84.9 °F 16.0 °F 8% 29.58 in 10.0 mi WSW 13.8 mph - N/A   Clear
8:53 PM 77.0 °F 17.1 °F 10% 29.59 in 10.0 mi West 8.1 mph - N/A   Clear
9:53 PM 70.0 °F 17.1 °F 13% 29.60 in 10.0 mi West 9.2 mph - N/A   Clear
10:53 PM 68.0 °F 17.1 °F 14% 29.60 in 10.0 mi West 6.9 mph - N/A   Clear
11:53 PM 66.9 °F 17.1 °F 15% 29.59 in 10.0 mi West 8.1 mph - N/A   Clear